DELTA 1 DEB, 7042

Orbit data source: Space-Track

DELTA 1 DEB, 7042 is space debris in SSO originally from a launch on Tue, 06 Nov 1973 UTC launched from the Air Force Western Test Range (AFWTR). Debris objects in space refer to the collection of defunct objects orbiting the Earth. Examples of debris include non-operational satellites, rocket bodies, and fragments generated from explosions, collisions, or faulty payload assembly.

Loading next visibility...
Identifier
7042, 1973-086AJ
Orbit
SSO
Country
Flag of USUS
Related business
Manufacturer
Unknown
Mission
Spacecraft
Bus & Motor
Unknown
Mass
Unknown
Launch date (UTC)
1973-11-06 (52 years ago)
Launch vehicle
Unknown
Launch site
Air Force Western Test Range (AFWTR)
Object type
Payload
Rocket body
Debris
Shape & HBR
Unknown
Radar Cross Section
Small (<0.1 m²)

Expand to show TLE details & history
Last TLE update: 22 hours ago

TLE from 22 hours ago
0 DELTA 1 DEB
1 07042U 73086AJ  25260.03409560  .00000636  00000-0  83033-3 0  9994
2 07042 101.7489  96.9729 0318384 341.7284  17.2612 13.47820444525438
Epoch: 2025-09-17T00:49Z
TLE epoch observation values (Epoch: 2025-09-17T00:49:05.859Z)
Latitude
-0.00006°
Longitude
88.48266°
Altitude
856.887 km
Speed
7.536 km/s
True Right ascension
06h 27m 53s
True Declination
0° 00' 00"
Sunlit
Object was in daylight at epoch
Visualization orbit readout
Latitude
Unknown
Longitude
Unknown
Altitude
Unknown
Speed
Unknown
Apparent Right ascension
Unknown
Apparent Declination
Unknown
Sunlit
N/A
Visualization observer readout
Local Sidereal Time
15:41:59
Azimuth
Unknown
Elevation
Unknown
Doppler factor
Unknown
Orbital elements
Apogee altitude
1,315.087 km
Perigee altitude
840.322 km
Semi-major axis
7,455.841 km
Eccentricity
0.03184
Inclination
101.7489°
RAAN
96.9729°
Arg. of periapsis
341.7284°
True anomaly
18.38641°
Mean anomaly
17.2612°
Eccentric anomaly
17.81944°
Mean motion
3.37131 °/min
Orbital period
106.78 mins
BSTAR
0.00083033
Loading maneuver chart data...
Computing Atmospheric mass density...
Loading historical data...
Loading historical data...
Loading historical data...
Loading historical data...
Loading historical data...
Loading historical data...
Loading historical data...

Documentation

Showing up to 5 results
|